Location: Csohesd
(46.2500°N, 22.6167°E)
Time: 13:06:11
(UTC+00:00)

CZ-4 R/B - Pass Details

Date: 21 October 2021
Orbit: 530 x 595 km, 97.8° (Epoch: 07 December)

Event Time Altitude Azimuth Distance (km) Brightness Sun altitude
Exits shadow 18:01:13 - 195° (SSW) 2,701 4.9 -26.3°
Reaches altitude 10° 18:03:32 10° 208° (SSW) 1,845 4.1 -26.7°
Maximum altitude 18:06:54 26° 265° (W) 1,142 3.5 -27.3°
Drops below altitude 10° 18:10:21 10° 323° (NW) 1,892 4.6 -27.9°
Sets 18:12:50 0° 336° (NNW) 2,808 5.4 -28.3°
